| time (UTC) | temp F | wind direction | speed MPH | gust MPH | rain 1hr in | rain 24hr in | rain mn in | humidity % | barometer mb |
| 20260903232005 | 61 | 8 | 0.0 | 0.0 | 0.00 | 0.00 | 0.39 | 90 | 999.7 |
| 20260903230504 | 61 | 356 | 0.0 | 0.0 | 0.00 | 0.00 | 0.39 | 90 | 1000.0 |
| 20260903225006 | 61 | 27 | 0.0 | 0.0 | 0.00 | 0.00 | 0.39 | 89 | 1000.0 |
| 20260903223505 | 62 | 9 | 0.0 | 0.0 | 0.00 | 0.00 | 0.39 | 88 | 1000.0 |
| 20260903221004 | 63 | 338 | 0.0 | 0.0 | 0.00 | 0.00 | 0.39 | 87 | 1000.0 |
| 20260903215504 | 63 | 315 | 0.0 | 0.0 | 0.00 | 0.00 | 0.39 | 87 | 1000.0 |
| 20260903214504 | 63 | 30 | 0.0 | 1.0 | 0.01 | 0.00 | 0.39 | 86 | 1000.3 |
| 20260903213005 | 63 | 317 | 0.0 | 0.0 | 0.01 | 0.00 | 0.39 | 88 | 1000.0 |
| 20260903211503 | 64 | 307 | 0.0 | 0.0 | 0.01 | 0.00 | 0.39 | 88 | 1000.0 |
| 20260903210006 | 64 | 339 | 0.0 | 0.0 | 0.01 | 0.00 | 0.39 | 88 | 1000.3 |
| 20260903204504 | 64 | 337 | 0.0 | 0.0 | 0.00 | 0.00 | 0.38 | 87 | 1000.3 |
| 20260903201504 | 63 | 332 | 0.0 | 0.0 | 0.00 | 0.00 | 0.38 | 90 | 1000.3 |
| 20260903194504 | 62 | 7 | 0.0 | 0.0 | 0.00 | 0.00 | 0.38 | 91 | 1000.7 |
| 20260903193004 | 62 | 11 | 0.0 | 0.0 | 0.00 | 0.00 | 0.38 | 92 | 1000.7 |
| 20260903191505 | 62 | 7 | 0.0 | 0.0 | 0.00 | 0.00 | 0.38 | 92 | 1001.0 |
| 20260903190005 | 62 | 15 | 0.0 | 0.0 | 0.00 | 0.00 | 0.38 | 93 | 1001.0 |
| 20260903184504 | 63 | 8 | 0.0 | 0.0 | 0.00 | 0.00 | 0.38 | 93 | 1001.0 |
| 20260903183006 | 62 | 28 | 0.0 | 0.0 | 0.00 | 0.00 | 0.38 | 93 | 1001.0 |
| 20260903181504 | 62 | 5 | 0.0 | 0.0 | 0.02 | 0.00 | 0.38 | 93 | 1001.0 |
| 20260903180004 | 62 | 354 | 0.0 | 0.0 | 0.02 | 0.00 | 0.38 | 93 | 1001.0 |
| 20260903174505 | 62 | 39 | 0.0 | 0.0 | 0.04 | 0.00 | 0.38 | 93 | 1001.0 |
| 20260903171505 | 61 | 7 | 0.0 | 0.0 | 0.06 | 0.00 | 0.36 | 93 | 1001.0 |
| 20260903170004 | 62 | 37 | 0.0 | 0.0 | 0.06 | 0.00 | 0.36 | 93 | 1001.0 |
| 20260903164504 | 62 | 16 | 0.0 | 0.0 | 0.06 | 0.00 | 0.34 | 93 | 1000.7 |
| 20260903162003 | 62 | 6 | 0.0 | 1.0 | 0.05 | 0.00 | 0.31 | 94 | 1000.7 |
| 20260903155005 | 61 | 359 | 0.0 | 0.0 | 0.07 | 0.00 | 0.28 | 93 | 1001.0 |
| 20260903153504 | 61 | 23 | 0.0 | 0.0 | 0.09 | 0.00 | 0.27 | 94 | 1001.0 |
| 20260903152006 | 61 | 4 | 0.0 | 0.0 | 0.08 | 0.00 | 0.26 | 93 | 1001.0 |
| 20260903150505 | 61 | 3 | 0.0 | 0.0 | 0.06 | 0.00 | 0.22 | 93 | 1001.0 |
| 20260903145005 | 60 | 354 | 0.0 | 0.0 | 0.05 | 0.00 | 0.20 | 93 | 1001.0 |
| 20260903142004 | 60 | 348 | 0.0 | 0.0 | 0.07 | 0.00 | 0.17 | 93 | 1000.7 |
| 20260903140505 | 60 | 331 | 0.0 | 0.0 | 0.10 | 0.00 | 0.16 | 93 | 1000.7 |
| 20260903135004 | 60 | 355 | 0.0 | 0.0 | 0.09 | 0.00 | 0.14 | 93 | 1000.7 |
| 20260903133503 | 59 | 356 | 0.0 | 0.0 | 0.09 | 0.00 | 0.12 | 92 | 1000.7 |
| 20260903132004 | 59 | 337 | 0.0 | 0.0 | 0.06 | 0.00 | 0.08 | 92 | 1000.7 |
| 20260903130504 | 59 | 338 | 0.0 | 0.0 | 0.06 | 0.00 | 0.06 | 92 | 1001.0 |
| 20260903123504 | 59 | 353 | 0.0 | 0.0 | 0.03 | 0.00 | 0.03 | 92 | 1001.0 |
| 20260903120503 | 59 | 1 | 0.0 | 0.0 | 0.00 | 0.00 | 0.00 | 91 | 1001.4 |
| 20260903115004 | 58 | 338 | 0.0 | 0.0 | 0.00 | 0.00 | 0.00 | 91 | 1001.4 |
| 20260903112004 | 58 | 352 | 0.0 | 0.0 | 0.00 | 0.00 | 0.00 | 91 | 1001.7 |
| 20260903110504 | 58 | 354 | 0.0 | 0.0 | 0.00 | 0.00 | 0.00 | 91 | 1001.7 |
| 20260903104503 | 58 | 18 | 0.0 | 0.0 | 0.00 | 0.00 | 0.00 | 91 | 1001.7 |
| 20260903103005 | 58 | 348 | 0.0 | 0.0 | 0.00 | 0.00 | 0.00 | 91 | 1002.0 |
| 20260903102004 | 58 | 0 | 0.0 | 0.0 | 0.00 | 0.00 | 0.00 | 91 | 1002.0 |
| 20260903100503 | 58 | 343 | 0.0 | 0.0 | 0.00 | 0.00 | 0.00 | 91 | 1002.0 |
| 20260903095004 | 58 | 353 | 0.0 | 0.0 | 0.00 | 0.00 | 0.00 | 91 | 1002.0 |
| 20260903093003 | 58 | 345 | 0.0 | 0.0 | 0.00 | 0.00 | 0.00 | 91 | 1002.4 |
| 20260903091505 | 58 | 8 | 0.0 | 0.0 | 0.00 | 0.00 | 0.00 | 91 | 1002.7 |
| 20260903090005 | 57 | 354 | 0.0 | 0.0 | 0.00 | 0.00 | 0.00 | 91 | 1002.7 |
| 20260903084504 | 57 | 349 | 0.0 | 0.0 | 0.00 | 0.00 | 0.00 | 91 | 1002.7 |
| 20260903080005 | 57 | 2 | 0.0 | 0.0 | 0.00 | 0.00 | 0.00 | 91 | 1003.0 |
| 20260903074504 | 57 | 2 | 0.0 | 0.0 | 0.00 | 0.00 | 0.00 | 91 | 1003.0 |
| 20260903073005 | 57 | 355 | 0.0 | 0.0 | 0.00 | 0.00 | 0.00 | 91 | 1003.0 |
| 20260903071504 | 58 | 358 | 0.0 | 0.0 | 0.00 | 0.00 | 0.00 | 91 | 1003.0 |
| 20260903070004 | 57 | 352 | 0.0 | 0.0 | 0.00 | 0.00 | 0.00 | 91 | 1003.0 |
| 20260903061504 | 57 | 359 | 0.0 | 0.0 | 0.00 | 0.00 | 0.00 | 90 | 1003.4 |
| 20260903060004 | 57 | 359 | 0.0 | 0.0 | 0.00 | 0.00 | 0.00 | 90 | 1003.4 |
| 20260903054504 | 57 | 4 | 0.0 | 0.0 | 0.00 | 0.00 | 0.00 | 90 | 1003.4 |
| 20260903053004 | 58 | 358 | 0.0 | 0.0 | 0.00 | 0.00 | 0.00 | 90 | 1003.4 |
| 20260903051503 | 58 | 359 | 0.0 | 0.0 | 0.00 | 0.00 | 0.00 | 89 | 1003.4 |
| 20260903050005 | 58 | 356 | 0.0 | 0.0 | 0.00 | 0.00 | 0.00 | 89 | 1003.7 |
| 20260903045004 | 58 | 351 | 0.0 | 0.0 | 0.00 | 0.00 | 0.00 | 89 | 1003.7 |
| 20260903043504 | 58 | 14 | 0.0 | 0.0 | 0.00 | 0.00 | 0.00 | 89 | 1003.7 |
| 20260903042004 | 59 | 336 | 0.0 | 0.0 | 0.00 | 0.00 | 0.00 | 88 | 1003.4 |
| 20260903035005 | 59 | 352 | 0.0 | 0.0 | 0.00 | 0.00 | 0.00 | 88 | 1003.4 |
| 20260903033004 | 59 | 340 | 0.0 | 0.0 | 0.00 | 0.00 | 0.00 | 87 | 1003.0 |
| 20260903031504 | 59 | 314 | 0.0 | 0.0 | 0.00 | 0.00 | 0.00 | 87 | 1003.0 |
| 20260903030005 | 60 | 334 | 0.0 | 0.0 | 0.00 | 0.00 | 0.00 | 87 | 1003.0 |
| 20260903024504 | 60 | 354 | 0.0 | 0.0 | 0.00 | 0.00 | 0.00 | 86 | 1003.0 |
| 20260903021504 | 61 | 343 | 0.0 | 0.0 | 0.00 | 0.00 | 0.00 | 86 | 1003.0 |
| 20260903020005 | 61 | 347 | 0.0 | 0.0 | 0.00 | 0.00 | 0.00 | 87 | 1003.0 |
| 20260903014504 | 61 | 328 | 0.0 | 0.0 | 0.00 | 0.00 | 0.00 | 86 | 1003.4 |
| 20260903011504 | 61 | 301 | 0.0 | 0.0 | 0.00 | 0.00 | 0.00 | 85 | 1003.4 |
| 20260903004503 | 62 | 347 | 0.0 | 0.0 | 0.00 | 0.00 | 0.00 | 85 | 1003.4 |
| 20260903000005 | 62 | 326 | 0.0 | 0.0 | 0.00 | 0.00 | 0.00 | 84 | 1003.4 |
| 20260902234504 | 63 | 5 | 0.0 | 0.0 | 0.00 | 0.00 | 0.00 | 83 | 1003.4 |
| 20260902233005 | 63 | 37 | 0.0 | 0.0 | 0.00 | 0.00 | 0.00 | 84 | 1003.4 |